When you browse on this site, cookies collect data to enhance your experience and personalize the content and advertising you see.
Visit our Privacy Policy to learn more. By continuing to use the site, you agree to this use of cookies and data.
  • Em Portugal
  • Lista de países
  • Para 7 dias
  • Temperatura da água
  • Mapas de satélite
  • Mapa do tempo
  • Widgets de tempo
  • user-avatar
    Iniciar Sessão

    Previsão horária em Yablonovka

    Hoje, 20 Maio, Segunda-feira

    Tempo Temperatura Precipitação Vento Pressão Humidade
    00:00 +16°C° 0.4 mm 3 m/s 743 mmHg 81%
    01:00 +16°C° 0 mm 3 m/s 742 mmHg 81%
    02:00 +16°C° 0 mm 3 m/s 741 mmHg 81%
    03:00 +14°C° 0 mm 3 m/s 740 mmHg 81%
    04:00 +14°C° 0.7 mm 3 m/s 739 mmHg 84%
    05:00 +14°C° 0.7 mm 3 m/s 738 mmHg 86%
    06:00 +14°C° 0.7 mm 4 m/s 738 mmHg 88%
    07:00 +16°C° 1.4 mm 3 m/s 737 mmHg 90%
    08:00 +16°C° 1.4 mm 3 m/s 736 mmHg 91%
    09:00 +18°C° 0 mm 1 m/s 735 mmHg 91%
    10:00 +17°C° 1.6 mm 2 m/s 735 mmHg 91%
    11:00 +16°C° 1.6 mm 3 m/s 735 mmHg 92%
    12:00 +15°C° 1.6 mm 4 m/s 734 mmHg 92%
    13:00 +16°C° 2.5 mm 3 m/s 734 mmHg 93%
    14:00 +16°C° 2.5 mm 2 m/s 734 mmHg 94%
    15:00 +18°C° 0 mm 1 m/s 733 mmHg 97%
    16:00 +16°C° 1.4 mm 1 m/s 733 mmHg 96%
    17:00 +16°C° 1.4 mm 2 m/s 733 mmHg 94%
    18:00 +16°C° 1.4 mm 2 m/s 733 mmHg 93%
    19:00 +15°C° 0 mm 2 m/s 734 mmHg 93%
    20:00 +14°C° 0 mm 2 m/s 734 mmHg 93%
    21:00 +13°C° 0 mm 2 m/s 734 mmHg 93%
    22:00 +12°C° 0 mm 2 m/s 734 mmHg 94%
    23:00 +10°C° 0 mm 2 m/s 734 mmHg 95%

    Amanhã, 21 Maio, Terça-feira

    Tempo Temperatura Precipitação Vento Pressão Humidade
    00:00 +10°C° 0 mm 2 m/s 734 mmHg 96%
    01:00 +9°C° 0 mm 2 m/s 734 mmHg 96%
    02:00 +9°C° 0 mm 2 m/s 734 mmHg 96%
    03:00 +8°C° 0 mm 2 m/s 734 mmHg 96%
    04:00 +9°C° 0 mm 2 m/s 734 mmHg 94%
    05:00 +9°C° 0 mm 2 m/s 734 mmHg 92%
    06:00 +9°C° 0 mm 2 m/s 734 mmHg 90%
    07:00 +11°C° 0 mm 3 m/s 734 mmHg 77%
    08:00 +13°C° 0 mm 4 m/s 734 mmHg 64%
    09:00 +15°C° 0 mm 5 m/s 733 mmHg 52%
    10:00 +17°C° 0 mm 5 m/s 733 mmHg 48%
    11:00 +19°C° 0 mm 5 m/s 733 mmHg 44%
    12:00 +20°C° 0 mm 5 m/s 732 mmHg 40%
    13:00 +20°C° 0 mm 5 m/s 732 mmHg 38%
    14:00 +21°C° 0 mm 5 m/s 732 mmHg 36%
    15:00 +21°C° 0 mm 5 m/s 732 mmHg 35%
    16:00 +20°C° 0 mm 4 m/s 732 mmHg 40%
    17:00 +19°C° 0 mm 4 m/s 732 mmHg 45%
    18:00 +18°C° 0 mm 3 m/s 733 mmHg 51%
    19:00 +16°C° 0 mm 2 m/s 733 mmHg 56%
    20:00 +14°C° 0 mm 2 m/s 733 mmHg 61%
    21:00 +12°C° 0 mm 2 m/s 733 mmHg 66%
    22:00 +10°C° 0 mm 2 m/s 733 mmHg 69%
    23:00 +10°C° 0 mm 2 m/s 733 mmHg 72%

    Depois de amanhã, 22 Maio, Quarta-feira

    Tempo Temperatura Precipitação Vento Pressão Humidade
    00:00 +9°C° 0 mm 2 m/s 734 mmHg 75%
    01:00 +9°C° 0 mm 2 m/s 733 mmHg 78%
    02:00 +8°C° 0 mm 2 m/s 733 mmHg 82%
    03:00 +7°C° 0 mm 2 m/s 733 mmHg 85%
    04:00 +8°C° 0 mm 2 m/s 734 mmHg 83%
    05:00 +9°C° 0 mm 2 m/s 734 mmHg 81%
    06:00 +9°C° 0 mm 2 m/s 734 mmHg 78%
    07:00 +12°C° 0 mm 2 m/s 734 mmHg 74%
    08:00 +13°C° 0 mm 3 m/s 734 mmHg 69%
    09:00 +14°C° 0 mm 4 m/s 734 mmHg 65%
    10:00 +15°C° 0.4 mm 4 m/s 734 mmHg 65%
    11:00 +15°C° 0.4 mm 4 m/s 734 mmHg 65%
    12:00 +15°C° 0.4 mm 4 m/s 734 mmHg 65%
    13:00 +15°C° 0.7 mm 4 m/s 734 mmHg 69%
    14:00 +15°C° 0.7 mm 4 m/s 734 mmHg 74%
    15:00 +15°C° 0.7 mm 4 m/s 733 mmHg 78%
    16:00 +14°C° 0.7 mm 3 m/s 734 mmHg 81%
    17:00 +14°C° 0.7 mm 3 m/s 734 mmHg 85%
    18:00 +15°C° 0.7 mm 2 m/s 734 mmHg 88%
    19:00 +13°C° 0.4 mm 2 m/s 735 mmHg 90%
    20:00 +12°C° 0.4 mm 2 m/s 736 mmHg 92%
    21:00 +10°C° 0.4 mm 2 m/s 736 mmHg 94%
    22:00 +9°C° 0 mm 2 m/s 737 mmHg 95%
    23:00 +9°C° 0 mm 2 m/s 737 mmHg 96%

    23 Maio, Quinta-feira

    Tempo Temperatura Precipitação Vento Pressão Humidade
    00:00 +8°C° 0 mm 2 m/s 737 mmHg 96%
    01:00 +8°C° 0 mm 2 m/s 737 mmHg 97%
    02:00 +9°C° 0 mm 1 m/s 738 mmHg 97%
    03:00 +8°C° 0 mm 1 m/s 738 mmHg 97%
    04:00 +9°C° 0 mm 1 m/s 738 mmHg 97%
    05:00 +9°C° 0 mm 1 m/s 739 mmHg 96%
    06:00 +10°C° 0 mm 1 m/s 739 mmHg 95%
    07:00 +12°C° 0 mm 1 m/s 739 mmHg 87%
    08:00 +14°C° 0 mm 1 m/s 740 mmHg 79%
    09:00 +16°C° 0 mm 1 m/s 740 mmHg 71%
    10:00 +17°C° 0.1 mm 2 m/s 740 mmHg 67%
    11:00 +18°C° 0.1 mm 2 m/s 740 mmHg 63%
    12:00 +19°C° 0.1 mm 3 m/s 740 mmHg 59%
    13:00 +19°C° 0 mm 3 m/s 740 mmHg 57%
    14:00 +20°C° 0 mm 3 m/s 740 mmHg 54%
    15:00 +21°C° 0 mm 4 m/s 740 mmHg 52%
    16:00 +20°C° 0 mm 3 m/s 740 mmHg 56%
    17:00 +19°C° 0 mm 2 m/s 741 mmHg 60%
    18:00 +19°C° 0 mm 2 m/s 741 mmHg 64%
    19:00 +18°C° 0 mm 1 m/s 741 mmHg 73%
    20:00 +15°C° 0 mm 1 m/s 742 mmHg 81%
    21:00 +12°C° 0 mm 0 m/s 742 mmHg 90%
    22:00 +12°C° 0 mm 1 m/s 743 mmHg 90%
    23:00 +12°C° 0 mm 1 m/s 743 mmHg 91%

    24 Maio, Sexta-feira

    Tempo Temperatura Precipitação Vento Pressão Humidade
    00:00 +12°C° 0 mm 1 m/s 743 mmHg 92%
    01:00 +11°C° 0 mm 1 m/s 743 mmHg 92%
    02:00 +11°C° 0 mm 1 m/s 743 mmHg 93%
    03:00 +11°C° 0 mm 1 m/s 744 mmHg 94%
    04:00 +11°C° 0 mm 1 m/s 744 mmHg 91%
    05:00 +12°C° 0 mm 1 m/s 744 mmHg 88%
    06:00 +12°C° 0 mm 1 m/s 744 mmHg 86%
    07:00 +16°C° 0 mm 1 m/s 744 mmHg 75%
    08:00 +20°C° 0 mm 1 m/s 744 mmHg 63%
    09:00 +23°C° 0 mm 1 m/s 744 mmHg 52%
    10:00 +24°C° 0 mm 1 m/s 744 mmHg 47%
    11:00 +26°C° 0 mm 1 m/s 744 mmHg 41%
    12:00 +27°C° 0 mm 1 m/s 744 mmHg 36%
    13:00 +28°C° 0 mm 1 m/s 743 mmHg 34%
    14:00 +28°C° 0 mm 1 m/s 743 mmHg 33%
    15:00 +29°C° 0 mm 1 m/s 742 mmHg 31%
    16:00 +28°C° 0 mm 1 m/s 742 mmHg 38%
    17:00 +27°C° 0 mm 1 m/s 742 mmHg 45%
    18:00 +25°C° 0 mm 1 m/s 742 mmHg 53%
    19:00 +23°C° 0 mm 1 m/s 742 mmHg 57%
    20:00 +21°C° 0 mm 1 m/s 742 mmHg 62%
    21:00 +17°C° 0 mm 2 m/s 743 mmHg 66%
    22:00 +16°C° 0 mm 2 m/s 742 mmHg 67%
    23:00 +16°C° 0 mm 2 m/s 742 mmHg 67%

    25 Maio, Sábado

    Tempo Temperatura Precipitação Vento Pressão Humidade
    00:00 +15°C° 0 mm 2 m/s 742 mmHg 67%
    01:00 +14°C° 0 mm 2 m/s 742 mmHg 66%
    02:00 +14°C° 0 mm 2 m/s 741 mmHg 65%
    03:00 +14°C° 0 mm 2 m/s 741 mmHg 64%
    04:00 +15°C° 0 mm 2 m/s 741 mmHg 63%
    05:00 +15°C° 0 mm 2 m/s 741 mmHg 62%
    06:00 +16°C° 0 mm 2 m/s 741 mmHg 62%
    07:00 +19°C° 0 mm 3 m/s 741 mmHg 56%
    08:00 +24°C° 0 mm 3 m/s 741 mmHg 49%
    09:00 +27°C° 0 mm 4 m/s 741 mmHg 43%
    10:00 +29°C° 0 mm 4 m/s 741 mmHg 40%
    11:00 +32°C° 0 mm 4 m/s 740 mmHg 36%
    12:00 +34°C° 0 mm 4 m/s 740 mmHg 33%
    13:00 +34°C° 0 mm 4 m/s 740 mmHg 31%
    14:00 +35°C° 0 mm 5 m/s 740 mmHg 29%
    15:00 +36°C° 0 mm 5 m/s 740 mmHg 28%
    16:00 +34°C° 0 mm 4 m/s 740 mmHg 32%
    17:00 +33°C° 0 mm 4 m/s 740 mmHg 37%
    18:00 +31°C° 0 mm 3 m/s 740 mmHg 42%
    19:00 +28°C° 0 mm 3 m/s 741 mmHg 45%
    20:00 +26°C° 0 mm 3 m/s 741 mmHg 48%
    21:00 +24°C° 0 mm 3 m/s 742 mmHg 52%
    22:00 +22°C° 0 mm 3 m/s 742 mmHg 51%
    23:00 +21°C° 0 mm 3 m/s 742 mmHg 51%
    Mostrar mais